• MPC Preparation (Info)

  • MPEC 2016-E127: 2016 EQ85

    The following Minor Planet Electronic Circular may be linked-to from your own Web pages, but must not otherwise be redistributed electronically.

    A form allowing access to any MPEC is at the bottom of this page.


    Read MPEC 2016-E126 Read MPEC 2016-E128


    M.P.E.C. 2016-E127                               Issued 2016 Mar. 12, 16:25 UT
    
         The Minor Planet Electronic Circulars contain information on unusual
             minor planets and routine data on comets.  They are published
        on behalf of Division F of the International Astronomical Union by the
              Minor Planet Center, Smithsonian Astrophysical Observatory,
                              Cambridge, MA 02138, U.S.A.
    
                 Prepared using the Tamkin Foundation Computer Network
    
                                  MPC@CFA.HARVARD.EDU
                URL https://www.minorplanetcenter.net/    ISSN 1523-6714
    
                                       2016 EQ85
    
    Observations:
         K16E85Q* C2016 03 10.22986 11 28 50.69 +05 03 30.4          21.5 VqEE127G96
         K16E85Q  C2016 03 10.23293 11 28 50.39 +05 03 56.3          21.9 VqEE127G96
         K16E85Q  C2016 03 10.23600 11 28 50.15 +05 04 21.8          20.9 VqEE127G96
         K16E85Q  C2016 03 10.23908 11 28 49.85 +05 04 47.4          21.3 VqEE127G96
         K16E85Q  C2016 03 10.34223 11 28 40.60 +05 19 01.5          21.1 VqEE127G96
         K16E85Q  C2016 03 10.34273 11 28 40.48 +05 19 06.0          21.4 VqEE127G96
         K16E85Q  C2016 03 10.34323 11 28 40.40 +05 19 09.2          21.3 VqEE127G96
         K16E85Q  C2016 03 10.46028 11 28 30.84 +05 35 01.8                qEE127G96
         K16E85Q  C2016 03 10.46096 11 28 30.78 +05 35 06.5                qEE127G96
         K16E85Q  C2016 03 10.46163 11 28 30.66 +05 35 12.4          22.5 VqEE127G96
         K16E85Q  C2016 03 10.46230 11 28 30.71 +05 35 18.3          21.2 VqEE127G96
         K16E85Q  C2016 03 11.31209 11 28 08.82 +07 24 55.7          22.1 VqEE127I52
         K16E85Q  C2016 03 11.31579 11 28 08.53 +07 25 22.9          21.9 VqEE127I52
         K16E85Q  C2016 03 11.32319 11 28 07.83 +07 26 16.8          22.5 VqEE127I52
         K16E85Q  C2016 03 11.37214 11 28 03.69 +07 32 18.1          21.7 RoEE127926
         K16E85Q  C2016 03 11.38108 11 28 02.97 +07 33 23.0          21.4 RoEE127926
         K16E85Q  C2016 03 11.39000 11 28 02.27 +07 34 27.4          21.6 RoEE127926
         K16E85Q  C2016 03 12.23952 11 27 43.43 +09 13 04.1          22.5 VqEE127G96
         K16E85Q  C2016 03 12.24144 11 27 43.23 +09 13 15.6                qEE127G96
         K16E85Q  C2016 03 12.24334 11 27 43.11 +09 13 29.9          22.7 VqEE127G96
    
    Observer details:
    926 Tenagra II Observatory.  Observers M. Schwartz, P. R. Holvorcem.  Measurer
        M. Schwartz.  0.81-m f/7 Ritchey-Chretien + CCD.
    G96 Mt. Lemmon Survey.  Observers A. R. Gibbs, G. J. Leonard, D. C. Fuls.
        Measurers E. J. Christensen, D. C. Fuls, A. R. Gibbs, A. D. Grauer,
        J. A. Johnson, R. A. Kowalski, S. M. Larson, G. J. Leonard, R. G. Matheny,
        R. L. Seaman, F. C. Shelly.  1.5-m reflector + CCD.
    I52 Steward Observatory, Mt. Lemmon Station.  Observer A. R. Gibbs.  Measurers
        E. J. Christensen, D. C. Fuls, A. R. Gibbs, A. D. Grauer, J. A. Johnson,
        R. A. Kowalski, S. M. Larson, G. J. Leonard, R. G. Matheny, R. L. Seaman,
        F. C. Shelly.  1.0-m reflector + CCD.
    
    Orbital elements:
    2016 EQ85                                                Earth MOID = 0.0174 AU
    Epoch 2016 Jan. 13.0 TT = JDT 2457400.5                 MPC
    M  24.80709              (2000.0)            P               Q
    n   0.90987694     Peri.  260.28864     +0.34651881     -0.93774958
    a   1.0547453      Node   169.34680     +0.90271002     +0.32656243
    e   0.2033342      Incl.    7.29121     +0.25502809     +0.11824850
    P   1.08           H   27.6           G   0.15           U   7
    Residuals in seconds of arc
    160310 G96  0.5+  0.3+    160310 G96  0.5+  0.1+    160311 926  0.4-  0.4+
    160310 G96  0.1-  0.5+    160310 G96  0.3+  0.7-    160311 926  0.3-  0.2+
    160310 G96  0.2+  0.3+    160310 G96  0.8-  0.2-    160311 926  0.0   0.2-
    160310 G96  0.3-  0.2+    160310 G96  0.7+  0.3+    160312 G96  0.4+  0.3+
    160310 G96  0.6+  0.4-    160311 I52  0.4+  0.3+    160312 G96  0.4-  1.0-
    160310 G96  0.6-  0.0     160311 I52  0.8+  0.2+    160312 G96  0.1-  0.6+
    160310 G96  1.1-  0.9-    160311 I52  0.2-  0.4-
    
    Ephemeris:
    2016 EQ85                a,e,i = 1.05, 0.20, 7                   q = 0.8403
    Date    TT    R. A. (2000) Decl.     Delta      r     Elong.  Phase     V
    2016 02 11    22 57 42.4 -70 12 53   0.06729 0.9522    57.3   119.3    26.4
    ...
    2016 02 26    11 48 22.4 -56 15 26   0.03375 1.0035   112.8    65.4    22.6
    ...
    2016 03 05    11 32 55.2 -11 26 18   0.04155 1.0313   161.0    18.2    21.7
    ...
    2016 03 11    11 28 19.0 +06 46 54   0.05851 1.0519   176.9     3.0    21.9
    2016 03 12    11 27 47.0 +08 47 05   0.06184 1.0553   174.5     5.2    22.1
    2016 03 13    11 27 18.4 +10 34 34   0.06526 1.0587   172.2     7.3    22.3
    ...
    2016 03 19    11 25 27.8 +18 03 43   0.08752 1.0787   161.1    17.4    23.4
    ...
    2016 03 27    11 25 11.6 +22 55 37   0.1206  1.1046   150.7    26.2    24.4
    ...
    2016 04 11    11 30 15.0 +25 17 50   0.1904  1.1493   137.3    36.3    25.8
    
    A. U. Tomatic                (C) Copyright 2016 MPC           M.P.E.C. 2016-E127
    

    Read MPEC 2016-E126 Read MPEC 2016-E128


    MPEC number:

    Enter an MPEC number in one of the following forms:

    • 1997-B01 (the full form)
    • J97B01 (the packed version of the full form)
    • B01 (the abbreviated form)